CAPE
577 764 626 685 688 680 661 790 921 1074 1136 1069 858 804 628 641 185 231 243 443 895 1076 1008 1063 866 860 721 853 911 887 1052 1092 1014 926 823 776 971 968 846 688 798 1038
511 552 616 711 633 443 545 747 734 900 858 888 940 732 552 365 199 136 314 512 672 864 752 747 736 746 844 787 922 1072 1006 800 926 399 745 665 707 641 649 787 926 1069
532 616 690 658 427 328 462 554 614 710 687 625 590 583 459 357 93 78 364 600 584 642 566 548 648 766 851 878 921 1025 1039 1028 814 728 754 581 776 685 742 652 945 979
587 661 665 587 383 254 321 316 324 364 359 261 398 490 419 157 107 156 325 328 617 464 404 544 583 498 560 695 804 711 813 799 835 886 832 777 751 635 593 646 867 1014
660 662 594 457 412 284 316 412 319 311 318 473 420 272 207 85 85 62 136 233 445 316 288 285 330 355 342 433 528 622 614 640 533 862 874 978 819 741 702 407 578 869
656 635 338 402 474 323 387 496 374 336 319 380 459 258 266 158 66 40 90 123 147 143 126 127 132 93 136 183 246 286 241 212 82 201 377 754 699 668 496 671 707 686
486 474 251 428 447 394 524 564 430 317 316 395 179 214 89 53 21 22 21 34 40 35 45 57 41 12 9 21 3 4 1 0 0 0 0 11 160 395 430 630 562 570
480 255 188 226 356 294 404 312 292 257 257 122 271 23 35 5 0 1 2 4 0 0 0 0 0 0 0 0 0 21 17 0 0 0 0 1 14 48 223 378 614 531
501 259 222 404 397 318 338 245 266 239 118 226 108 1 0 3 0 0 0 0 0 0 0 0 0 0 0 0 0 0 1 0 0 0 0 4 3 6 5 112 366 542
468 239 297 523 348 317 325 190 143 127 78 115 12 0 0 0 0 0 0 0 0 0 0 0 0 0 0 0 0 0 0 0 0 0 0 0 0 0 0 0 100 441
347 305 390 502 234 94 52 21 22 5 0 0 0 0 0 0 0 0 0 0 0 0 0 0 0 0 0 0 0 0 0 0 0 0 0 0 0 0 0 0 0 142
404 342 295 188 203 8 3 0 0 0 0 0 0 0 0 0 0 0 0 0 0 0 0 0 0 0 0 0 0 0 0 0 0 0 0 0 0 0 0 0 0 0
435 373 77 195 248 9 19 0 0 0 0 0 0 0 0 0 0 0 0 0 0 0 0 0 0 0 0 0 0 0 0 0 0 0 0 11 1 0 0 0 0 0
416 258 0 0 0 0 42 66 7 0 0 0 0 0 0 0 0 0 0 0 0 0 0 0 0 0 0 0 0 0 0 0 0 0 0 0 64 11 0 0 0 0
400 32 0 0 0 2 16 22 22 82 56 10 0 0 0 0 0 0 0 0 0 0 0 0 0 0 0 0 0 0 0 0 0 0 0 0 0 19 5 0 0 0
343 0 0 1 3 9 6 10 0 0 0 0 0 0 0 0 0 0 0 0 0 0 0 0 0 0 0 0 0 0 0 0 0 0 0 4 1 12 38 10 4 0
0 118 0 0 0 1 3 0 0 0 0 0 0 0 0 0 0 14 3 0 0 0 0 0 1 0 0 0 0 0 0 0 0 5 0 1 16 30 41 48 43 3
28 23 64 30 31 11 1 1 0 0 0 0 0 0 0 0 0 0 0 3 1 0 0 1 2 0 0 0 0 0 0 0 0 0 0 5 6 12 18 31 83 118
31 11 3 0 0 0 0 0 0 0 0 0 0 0 0 0 0 0 0 0 0 0 0 0 0 0 0 0 0 0 0 0 0 0 0 0 0 2 19 69 121 85
0 0 7 4 0 0 0 4 3 2 0 0 0 0 0 0 0 0 0 0 0 0 0 0 0 0 0 0 0 0 0 0 0 0 0 0 0 0 0 2 14 22
0 0 0 1 0 4 9 2 0 0 0 0 0 3 0 0 0 0 0 0 0 0 0 0 0 0 0 0 0 0 0 0 0 4 118 159 63 14 4 4 5 8
1 3 0 0 0 2 3 5 8 0 0 0 0 0 0 0 0 0 0 0 0 0 0 0 0 0 0 0 0 0 0 0 0 0 21 119 243 156 86 93 47 56
5 9 9 6 6 4 16 21 22 16 9 7 6 0 0 0 0 0 0 0 0 0 0 0 0 0 0 0 0 0 0 0 0 0 0 0 0 0 0 8 58 57
12 8 9 9 9 10 4 2 2 2 2 1 0 0 1 0 0 0 0 0 0 0 0 0 0 0 0 0 0 0 0 0 0 0 0 0 0 0 0 1 1 0
2 1 0 0 0 3 0 2 2 1 1 2 1 1 1 0 0 0 0 0 0 0 0 0 0 0 0 0 0 0 0 0 0 0 0 0 0 0 0 0 0 0
1 0 0 0 0 0 0 0 0 0 1 1 1 0 0 0 0 0 0 0 0 0 0 0 0 0 0 0 0 0 0 0 0 0 0 0 0 0 0 0 0 0
Wind_Speed
27 26 27 26 25 25 25 27 27 25 22 21 20 20 21 23 21 22 23 22 20 20 20 19 18 16 14 11 10 9 10 11 11 11 10 10 9 10 10 9 9 9
27 26 27 26 24 24 26 26 26 23 21 20 20 21 22 23 22 22 22 22 21 21 20 20 18 16 14 12 11 10 11 12 11 11 11 10 10 9 9 9 9 10
26 27 27 24 23 23 25 25 23 20 19 19 20 21 22 22 nan nan 22 22 21 21 21 20 18 17 16 13 12 12 12 11 11 13 13 13 12 11 11 11 10 11
24 24 24 23 23 23 23 22 20 17 17 18 18 19 20 22 23 24 23 21 22 22 22 20 19 18 16 14 12 13 12 11 11 12 13 13 12 12 12 11 11 12
25 24 22 21 21 21 20 18 15 14 14 15 17 17 18 nan nan nan 22 21 21 22 22 21 20 19 17 15 13 14 13 12 11 10 11 12 12 11 11 11 12 13
24 21 20 20 19 18 17 15 13 13 14 15 16 16 18 20 nan nan nan 22 21 21 22 22 21 nan 18 17 14 15 15 13 nan 10 11 11 12 11 12 12 14 14
22 21 20 19 18 17 17 15 15 15 15 17 19 19 nan nan nan nan nan nan nan nan nan nan nan nan nan nan nan nan nan nan nan nan nan nan 13 13 13 13 14 14
21 20 19 18 18 18 17 16 15 15 17 18 19 nan nan nan nan nan nan nan nan nan nan nan nan nan nan nan nan nan nan nan nan nan nan nan nan nan 15 15 15 16
21 20 19 19 19 17 16 16 15 16 16 17 18 nan nan nan nan nan nan nan nan nan nan nan nan nan nan nan nan nan nan nan nan nan nan nan nan nan nan 18 17 17
20 21 21 20 19 18 18 17 17 18 nan 19 nan nan nan nan nan nan nan nan nan nan nan nan nan nan nan nan nan nan nan nan nan nan nan nan nan nan nan nan 19 19
21 21 22 23 23 nan nan nan nan nan nan nan nan nan nan nan nan nan nan nan nan nan nan nan nan nan nan nan nan nan nan nan nan nan nan nan nan nan nan nan nan 19
29 28 27 24 22 nan nan nan nan nan nan nan nan nan nan nan nan nan nan nan nan nan nan nan nan nan nan nan nan nan nan nan nan nan nan nan nan nan nan nan nan nan
31 29 nan 22 21 nan nan nan nan nan nan nan nan nan nan nan nan nan nan nan nan nan nan nan nan nan nan nan nan nan nan nan nan nan nan nan nan nan nan nan nan nan
28 26 nan nan nan nan nan nan nan nan nan nan nan nan nan nan nan nan nan nan nan nan nan nan nan nan nan nan nan nan nan nan nan nan nan nan nan nan nan nan nan nan
29 nan nan nan nan nan nan nan nan nan nan nan nan nan nan nan nan nan nan nan nan nan nan nan nan nan nan nan nan nan nan nan nan nan nan nan nan nan nan nan nan nan
30 nan nan nan nan nan nan nan nan nan nan nan nan nan nan nan nan nan nan nan nan nan nan nan nan nan nan nan nan nan nan nan nan nan nan nan nan nan nan nan nan nan
nan 33 nan nan nan nan nan nan nan nan nan nan nan nan nan nan nan nan nan nan nan nan nan nan nan nan nan nan nan nan nan nan nan nan nan nan nan nan nan nan nan nan
nan nan nan nan nan nan nan nan nan nan nan nan nan nan nan nan nan nan nan nan nan nan nan nan nan nan nan nan nan nan nan nan nan nan nan nan nan nan nan nan nan 23
nan nan nan nan nan nan nan nan nan nan nan nan nan nan nan nan nan nan nan nan nan nan nan nan nan nan nan nan nan nan nan nan nan nan nan nan nan nan nan nan 25 nan
nan nan nan nan nan nan nan nan nan nan nan nan nan nan nan nan nan nan nan nan nan nan nan nan nan nan nan nan nan nan nan nan nan nan nan nan nan nan nan nan nan nan
nan nan nan nan nan nan nan nan nan nan nan nan nan nan nan nan nan nan nan nan nan nan nan nan nan nan nan nan nan nan nan nan nan nan 32 33 nan nan nan nan nan nan
nan nan nan nan nan nan nan nan nan nan nan nan nan nan nan nan nan nan nan nan nan nan nan nan nan nan nan nan nan nan nan nan nan nan nan 34 35 35 nan nan nan nan
nan nan nan nan nan nan nan nan nan nan nan nan nan nan nan nan nan nan nan nan nan nan nan nan nan nan nan nan nan nan nan nan nan nan nan nan nan nan nan nan nan nan
nan nan nan nan nan nan nan nan nan nan nan nan nan nan nan nan nan nan nan nan nan nan nan nan nan nan nan nan nan nan nan nan nan nan nan nan nan nan nan nan nan nan
nan nan nan nan nan nan nan nan nan nan nan nan nan nan nan nan nan nan nan nan nan nan nan nan nan nan nan nan nan nan nan nan nan nan nan nan nan nan nan nan nan nan
nan nan nan nan nan nan nan nan nan nan nan nan nan nan nan nan nan nan nan nan nan nan nan nan nan nan nan nan nan nan nan nan nan nan nan nan nan nan nan nan nan nan
Wind_Direction
238 239 242 246 249 249 249 251 252 256 257 258 262 261 262 257 252 246 243 241 239 241 245 251 255 257 260 268 280 283 277 270 263 260 265 264 263 267 265 268 268 265
235 239 241 247 248 246 248 251 254 257 259 258 258 260 257 258 254 251 248 245 242 244 248 254 259 261 264 269 281 285 277 272 271 267 271 275 269 271 271 274 277 275
238 239 247 254 253 253 255 255 259 257 258 258 258 260 261 257 nan nan 249 245 244 246 250 257 262 262 263 270 284 287 282 279 276 277 275 275 272 272 275 282 286 293
247 247 252 255 256 257 257 261 260 257 254 261 265 260 258 257 258 258 252 247 245 245 250 256 260 261 264 270 281 282 280 277 273 277 276 273 271 274 278 284 289 290
246 248 250 253 252 254 258 264 266 260 261 261 259 257 257 nan nan nan 254 249 246 247 252 258 261 263 265 266 273 277 277 274 273 274 275 276 277 281 284 293 298 296
241 247 246 248 253 256 259 264 258 252 252 256 256 252 252 255 nan nan nan 257 251 250 254 259 262 nan 264 265 268 269 271 269 nan 275 278 281 283 286 286 294 300 301
238 238 242 247 255 254 253 248 242 245 250 252 250 249 nan nan nan nan nan nan nan nan nan nan nan nan nan nan nan nan nan nan nan nan nan nan 274 278 278 285 290 292
239 237 243 248 252 249 245 242 242 248 253 254 253 nan nan nan nan nan nan nan nan nan nan nan nan nan nan nan nan nan nan nan nan nan nan nan nan nan 275 274 279 284
244 244 245 250 250 247 245 242 244 249 254 261 259 nan nan nan nan nan nan nan nan nan nan nan nan nan nan nan nan nan nan nan nan nan nan nan nan nan nan 275 280 282
246 247 249 247 246 240 243 240 242 246 nan 257 nan nan nan nan nan nan nan nan nan nan nan nan nan nan nan nan nan nan nan nan nan nan nan nan nan nan nan nan 277 280
239 239 242 242 240 nan nan nan nan nan nan nan nan nan nan nan nan nan nan nan nan nan nan nan nan nan nan nan nan nan nan nan nan nan nan nan nan nan nan nan nan 276
228 226 229 238 246 nan nan nan nan nan nan nan nan nan nan nan nan nan nan nan nan nan nan nan nan nan nan nan nan nan nan nan nan nan nan nan nan nan nan nan nan nan
241 242 nan 247 242 nan nan nan nan nan nan nan nan nan nan nan nan nan nan nan nan nan nan nan nan nan nan nan nan nan nan nan nan nan nan nan nan nan nan nan nan nan
237 239 nan nan nan nan nan nan nan nan nan nan nan nan nan nan nan nan nan nan nan nan nan nan nan nan nan nan nan nan nan nan nan nan nan nan nan nan nan nan nan nan
241 nan nan nan nan nan nan nan nan nan nan nan nan nan nan nan nan nan nan nan nan nan nan nan nan nan nan nan nan nan nan nan nan nan nan nan nan nan nan nan nan nan
243 nan nan nan nan nan nan nan nan nan nan nan nan nan nan nan nan nan nan nan nan nan nan nan nan nan nan nan nan nan nan nan nan nan nan nan nan nan nan nan nan nan
nan 239 nan nan nan nan nan nan nan nan nan nan nan nan nan nan nan nan nan nan nan nan nan nan nan nan nan nan nan nan nan nan nan nan nan nan nan nan nan nan nan nan
nan nan nan nan nan nan nan nan nan nan nan nan nan nan nan nan nan nan nan nan nan nan nan nan nan nan nan nan nan nan nan nan nan nan nan nan nan nan nan nan nan 262
nan nan nan nan nan nan nan nan nan nan nan nan nan nan nan nan nan nan nan nan nan nan nan nan nan nan nan nan nan nan nan nan nan nan nan nan nan nan nan nan 246 nan
nan nan nan nan nan nan nan nan nan nan nan nan nan nan nan nan nan nan nan nan nan nan nan nan nan nan nan nan nan nan nan nan nan nan nan nan nan nan nan nan nan nan
nan nan nan nan nan nan nan nan nan nan nan nan nan nan nan nan nan nan nan nan nan nan nan nan nan nan nan nan nan nan nan nan nan nan 258 255 nan nan nan nan nan nan
nan nan nan nan nan nan nan nan nan nan nan nan nan nan nan nan nan nan nan nan nan nan nan nan nan nan nan nan nan nan nan nan nan nan nan 256 256 255 nan nan nan nan
nan nan nan nan nan nan nan nan nan nan nan nan nan nan nan nan nan nan nan nan nan nan nan nan nan nan nan nan nan nan nan nan nan nan nan nan nan nan nan nan nan nan
nan nan nan nan nan nan nan nan nan nan nan nan nan nan nan nan nan nan nan nan nan nan nan nan nan nan nan nan nan nan nan nan nan nan nan nan nan nan nan nan nan nan
nan nan nan nan nan nan nan nan nan nan nan nan nan nan nan nan nan nan nan nan nan nan nan nan nan nan nan nan nan nan nan nan nan nan nan nan nan nan nan nan nan nan
nan nan nan nan nan nan nan nan nan nan nan nan nan nan nan nan nan nan nan nan nan nan nan nan nan nan nan nan nan nan nan nan nan nan nan nan nan nan nan nan nan nan